Miscellaneous Local Product
Issued by NWS Hastings, NE

Home | Current Version | Previous Version | Text Only | Print | Product List | Glossary Off
Versions: 1 2 3 4 5 6 7 8 9 10 11 12 13 14 15 16 17 18 19 20 21 22 23 24 25 26 27 28 29 30 31 32 33 34 35 36 37 38 39 40 41 42 43 44 45 46 47 48 49 50

433
AXUS43 KGID 270202
MISGRI

GID CWA HOURLY WEATHER ROUNDUP
NATIONAL WEATHER SERVICE HASTINGS NE
900 PM CDT WED APR 26 2017

NOTE: "FAIR" INDICATES FEW OR NO CLOUDS BELOW 12,000 FEET WITH NO
SIGNIFICANT WEATHER AND/OR OBSTRUCTIONS TO VISIBILITY.

...SOUTH CENTRAL NEBRASKA...

CITY           SKY/WX    TMP DP  RH WIND       PRES   REMARKS
GRAND ISLAND   PTCLDY    38  30  73 N9        29.71R WCI  31
HASTINGS       CLEAR     38  29  70 N9        29.71R WCI  31
KEARNEY        CLEAR     37  27  65 N6        29.70S WCI  33
ORD            CLEAR     36  29  75 NW7       29.69S WCI  30
YORK           CLOUDY    41  30  65 NW14G20   29.70R
AURORA         CLOUDY    41  30  63 N12       29.70R
LEXINGTON      CLEAR     39  30  70 N7        29.70R WCI  34
HOLDREGE       CLEAR     39  28  66 N7        29.69S WCI  34
HEBRON         PTCLDY    43  31  63 N7        29.70R

...NEBRASKA PANHANDLE...

CITY           SKY/WX    TMP DP  RH WIND       PRES   REMARKS
CHADRON        CLEAR     40  31  70 NE8       29.72S WCI  34
ALLIANCE       CLOUDY    42  31  64 NE7       29.69R
SCOTTSBLUFF    LGT RAIN  47  38  71 SE9       29.69R
SIDNEY         MOCLDY    42  39  89 E14       29.70S

...WESTERN AND NORTH CENTRAL NEBRASKA...

CITY           SKY/WX    TMP DP  RH WIND       PRES   REMARKS
VALENTINE      CLEAR     35  26  69 W8        29.71F WCI  29
AINSWORTH      CLEAR     36  29  78 NW6       29.70F WCI  31
ONEILL         CLEAR     37  29  71 N5        29.69S WCI  34
BROKEN BOW     CLEAR     37  28  70 N9        29.69F WCI  30
IMPERIAL       PTCLDY    45  32  60 NE9       29.69R
NORTH PLATTE   CLEAR     40  30  67 N8        29.70S WCI  34
MCCOOK         CLEAR     44  27  51 NE6       29.68S

...EASTERN NEBRASKA...

CITY           SKY/WX    TMP DP  RH WIND       PRES   REMARKS
NORFOLK        CLOUDY    39  30  70 N9        29.67R WCI  33
SO SIOUX CITY  CLOUDY    39  30  70 N13       29.67R WCI  31
TEKAMAH        CLOUDY    40  31  70 NW17      29.68R WCI  31
COLUMBUS       CLOUDY    41  28  60 NW14G20   29.70R
ALBION         CLEAR     37  29  73 N3        29.68S
OMAHA EPPLEY   CLOUDY    42  31  64 NW17      29.67R
OFFUTT AFB     CLOUDY    42  31  65 NW10      29.66R
MILLARD        CLOUDY    43  34  69 NW9G21    29.68R
LINCOLN        CLOUDY    44  32  62 N12       29.71R
NEBRASKA CITY  CLOUDY    42  29  61 N10       29.67S
BEATRICE       CLOUDY    45  35  67 N9        29.70R
FALLS CITY     CLOUDY    43  33  68 NW10      29.67R

...NORTHERN KANSAS...

CITY           SKY/WX    TMP DP  RH WIND       PRES   REMARKS
GOODLAND       CLEAR     45  31  58 E8        29.69R
HILL CITY      CLEAR     44  33  65 NE7       29.70R
NORTON         CLEAR     39  27  60 N5        29.68S
PHILLIPSBURG   CLEAR     45  32  61 N6        29.70R
SMITH CENTER   CLEAR     39  30  70 N6        29.71R WCI  35
HAYS           CLEAR     48  34  58 NE3       29.71R
RUSSELL        CLEAR     44  33  65 NE6       29.69R
CONCORDIA      CLEAR     43  33  68 N8        29.71R
SALINA         CLOUDY    49  38  65 N7        29.71R
TOPEKA         CLOUDY    47  37  68 NW12      29.68R



USA.gov is the U.S. government's official web portal to all federal, state and local government web resources and services.